This is the latest recevied weather packets stored in our database for station/object K7CTM. If no packets are shown the sender has not sent any weather packets the latest 10 day(s).
| Time | Temp. | Humidity | Pressure | Rain* | Wind** | Luminosity | Snow |
|---|---|---|---|---|---|---|---|
| 1778000288 | 7.22° C | 42% | 1026.9 hPa | 0 mm | - | 273 W/m² | - |
| 1777999984 | 7.22° C | 44% | 1027 hPa | 0 mm | - | 282 W/m² | - |
| 1777999679 | 7.22° C | 45% | 1026.6 hPa | 0 mm | - | 192 W/m² | - |
| 1777999377 | 7.78° C | 43% | 1026.6 hPa | 0 mm | - | 213 W/m² | - |
| 1777999075 | 7.78° C | 42% | 1026.6 hPa | 0 mm | - | 284 W/m² | - |
| 1777998773 | 7.78° C | 40% | 1026.9 hPa | 0 mm | - | 240 W/m² | - |
| 1777998470 | 8.33° C | 40% | 1026.8 hPa | 0 mm | - | 290 W/m² | - |
| 1777998167 | 8.89° C | 40% | 1026.8 hPa | 0 mm | - | 439 W/m² | - |
| 1777997865 | 7.78° C | 44% | 1026.9 hPa | 0 mm | - | 503 W/m² | - |
| 1777997562 | 6.67° C | 45% | 1026.9 hPa | 0 mm | - | 683 W/m² | - |
| 1777997259 | 7.22° C | 45% | 1027.2 hPa | 0 mm | - | 252 W/m² | - |
| 1777996957 | 6.67° C | 46% | 1027.1 hPa | 0 mm | - | 458 W/m² | - |
| 1777996653 | 6.11° C | 48% | 1027.1 hPa | 0 mm | - | 412 W/m² | - |
| 1777996349 | 6.11° C | 46% | 1027.1 hPa | 0 mm | - | 349 W/m² | - |
| 1777996046 | 6.11° C | 48% | 1027.3 hPa | 0 mm | - | 457 W/m² | - |
| 1777995742 | 5.56° C | 48% | 1027.1 hPa | 0 mm | - | 343 W/m² | - |
| 1777995438 | 5° C | 50% | 1027.3 hPa | 0 mm | - | 251 W/m² | - |
| 1777995136 | 5° C | 54% | 1027.3 hPa | 0 mm | - | 187 W/m² | - |
| 1777994833 | 5° C | 54% | 1027.2 hPa | 0 mm | - | 313 W/m² | - |
| 1777994528 | 5° C | 58% | 1027.4 hPa | 0 mm | - | 344 W/m² | - |
| 1777994223 | 5° C | 55% | 1027.2 hPa | 0 mm | - | 432 W/m² | - |
| 1777993921 | 5° C | 56% | 1027.3 hPa | 0 mm | - | 323 W/m² | - |
| 1777993617 | 3.89° C | 59% | 1027.4 hPa | 0 mm | - | 275 W/m² | - |
| 1777993314 | 3.89° C | 60% | 1027.2 hPa | 0 mm | - | 392 W/m² | - |
| 1777993009 | 3.33° C | 61% | 1027.3 hPa | 0 mm | - | 356 W/m² | - |
* Rain latest hour (hover to see other rain measurements)
** Current wind speed in m/s (hover to see current wind gust speed)